Date String (YYYY-MM-DD hh:mm:ss) UTC,Instrument flags,Ambient pressure (hPa),Sample flow (lpm),Bypass flow (lpm),Sample temperature (°C),Ambient temperature (°C),ASC tube jacket temperature (°C),LED temperature (°C),Box temperature (°C),Sample RH (%),Span deviation,Mass concentration (μg/m³),Mass concentration (μg/m³),Mass concentration (μg/m³)
DateTimeUTC,F1_M11,P_M11,Q1_M11,Q2_M11,T1_M11,T2_M11,T3_M11,T4_M11,T5_M11,U1_M11,ZSPAN_M11,X0_M11,X2_M11,X1_M11
2023-05-03 07:00:00,,0828.6,5.01,0.00,29.5,27.9,00.0,37.9,31.0,17.3,0000.0,0010.43,0005.05,0003.70
2023-05-03 07:01:00,,0828.6,5.00,0.00,29.5,27.9,00.0,37.9,30.9,17.2,0000.0,0010.50,0005.00,0003.70
2023-05-03 07:02:00,,0828.6,4.98,0.00,29.5,27.9,00.0,37.9,30.9,17.3,0000.0,0010.63,0004.98,0003.70
2023-05-03 07:03:00,,0828.6,4.99,0.00,29.5,27.9,00.0,37.9,30.9,17.2,0000.0,0010.84,0005.01,0003.70
2023-05-03 07:04:00,,0828.6,5.00,0.00,29.5,27.9,00.0,37.9,30.9,17.0,0000.0,0011.19,0005.10,0003.71
2023-05-03 07:05:00,,0828.6,5.01,0.00,29.5,27.8,00.0,37.9,30.9,17.0,0000.0,0011.17,0005.09,0003.71
2023-05-03 07:06:00,,0828.6,5.00,0.00,29.5,27.8,00.0,37.9,30.9,17.1,0000.0,0011.07,0005.09,0003.71
2023-05-03 07:07:00,,0828.6,4.99,0.00,29.5,27.8,00.0,37.9,30.9,17.0,0000.0,0011.04,0005.08,0003.70
2023-05-03 07:08:00,,0828.6,5.00,0.00,29.5,27.8,00.0,37.9,30.9,16.9,0000.0,0011.36,0005.01,0003.69
2023-05-03 07:09:00,,0828.6,5.01,0.00,29.5,27.8,00.0,37.9,30.9,17.0,0000.0,0012.24,0005.00,0003.69
2023-05-03 07:10:00,,0828.6,5.01,0.00,29.5,27.8,00.0,37.9,30.8,17.1,0000.0,0012.38,0005.06,0003.70
2023-05-03 07:11:00,,0828.6,5.00,0.00,29.5,27.8,00.0,37.9,30.8,17.1,0000.0,0012.56,0005.11,0003.70
2023-05-03 07:12:00,,0828.6,5.00,0.00,29.5,27.8,00.0,37.9,30.9,17.1,0000.0,0012.52,0005.15,0003.71
2023-05-03 07:13:00,,0828.6,5.00,0.00,29.5,27.7,00.0,37.9,30.8,17.1,0000.0,0012.08,0005.09,0003.70
2023-05-03 07:14:00,,0828.6,4.99,0.00,29.5,27.7,00.0,37.9,30.8,17.1,0000.0,0011.91,0005.06,0003.70
2023-05-03 07:15:00,,0828.6,4.99,0.00,29.4,27.7,00.0,37.9,30.8,17.0,0000.0,0011.72,0005.05,0003.70
2023-05-03 07:16:00,,0828.6,5.00,0.00,29.4,27.7,00.0,37.9,30.8,17.2,0000.0,0011.86,0005.08,0003.70
2023-05-03 07:17:00,,0828.6,5.01,0.00,29.4,27.7,00.0,37.9,30.8,17.2,0000.0,0012.26,0005.14,0003.73
2023-05-03 07:18:00,,0828.6,5.00,0.00,29.4,27.7,00.0,37.9,30.8,17.2,0000.0,0012.28,0005.17,0003.74
2023-05-03 07:19:00,,0828.6,4.99,0.00,29.4,27.7,00.0,37.8,30.8,17.1,0000.0,0012.18,0005.21,0003.76
2023-05-03 07:20:00,,0828.6,5.00,0.00,29.4,27.6,00.0,37.8,30.7,17.0,0000.0,0010.98,0005.24,0003.75
2023-05-03 07:21:00,,0828.6,5.01,0.00,29.4,27.6,00.0,37.8,30.7,16.9,0000.0,0010.90,0005.20,0003.75
2023-05-03 07:22:00,,0828.6,5.01,0.00,29.4,27.6,00.0,37.8,30.7,17.0,0000.0,0010.83,0005.17,0003.75
2023-05-03 07:23:00,,0828.6,4.99,0.00,29.4,27.5,00.0,37.8,30.7,17.0,0000.0,0010.75,0005.17,0003.75
2023-05-03 07:24:00,,0828.7,5.01,0.00,29.3,27.5,00.0,37.8,30.7,16.9,0000.0,0010.73,0005.21,0003.77
2023-05-03 07:25:00,,0828.7,5.00,0.00,29.3,27.5,00.0,37.8,30.6,17.1,0000.0,0010.72,0005.20,0003.77
2023-05-03 07:26:00,,0828.7,5.00,0.00,29.3,27.5,00.0,37.8,30.7,17.0,0000.0,0010.50,0005.12,0003.78
2023-05-03 07:27:00,,0828.7,4.98,0.00,29.3,27.5,00.0,37.8,30.6,17.0,0000.0,0010.23,0005.06,0003.79
2023-05-03 07:28:00,,0828.6,5.00,0.00,29.3,27.4,00.0,37.8,30.6,16.8,0000.0,0009.56,0005.00,0003.78
2023-05-03 07:29:00,,0828.7,5.01,0.00,29.3,27.4,00.0,37.7,30.7,16.8,0000.0,0009.65,0005.03,0003.78
2023-05-03 07:30:00,,0828.7,4.99,0.00,29.3,27.4,00.0,37.7,30.6,16.9,0000.0,0010.51,0005.03,0003.79
2023-05-03 07:31:00,,0828.7,5.00,0.00,29.3,27.4,00.0,37.7,30.6,16.8,0000.0,0010.31,0004.96,0003.79
2023-05-03 07:32:00,,0828.7,5.01,0.00,29.3,27.4,00.0,37.7,30.6,16.8,0000.0,0010.20,0004.96,0003.80
2023-05-03 07:33:00,,0828.7,5.00,0.00,29.3,27.4,00.0,37.7,30.6,16.7,0000.0,0010.17,0004.95,0003.80
2023-05-03 07:34:00,,0828.7,4.98,0.00,29.3,27.4,00.0,37.7,30.6,16.7,0000.0,0010.17,0004.95,0003.80
2023-05-03 07:35:00,,0828.7,5.01,0.00,29.2,27.4,00.0,37.7,30.6,16.8,0000.0,0010.28,0005.01,0003.80
2023-05-03 07:36:00,,0828.7,5.01,0.00,29.2,27.4,00.0,37.7,30.6,16.7,0000.0,0010.64,0005.01,0003.80
2023-05-03 07:37:00,,0828.7,5.00,0.00,29.2,27.4,00.0,37.7,30.6,16.7,0000.0,0011.41,0005.06,0003.81
2023-05-03 07:38:00,,0828.7,4.99,0.00,29.2,27.4,00.0,37.7,30.6,16.6,0000.0,0011.62,0005.12,0003.80
2023-05-03 07:39:00,,0828.7,5.00,0.00,29.2,27.4,00.0,37.7,30.5,16.6,0000.0,0011.68,0005.13,0003.81
2023-05-03 07:40:00,,0828.7,5.02,0.00,29.2,27.4,00.0,37.6,30.5,16.6,0000.0,0011.75,0005.10,0003.81
2023-05-03 07:41:00,,0828.7,5.00,0.00,29.2,27.4,00.0,37.6,30.6,16.6,0000.0,0010.96,0005.06,0003.80
2023-05-03 07:42:00,,0828.7,4.98,0.00,29.2,27.4,00.0,37.6,30.5,16.7,0000.0,0010.82,0005.06,0003.80
2023-05-03 07:43:00,,0828.7,5.01,0.00,29.2,27.4,00.0,37.6,30.5,16.6,0000.0,0010.77,0005.04,0003.80
2023-05-03 07:44:00,,0828.7,5.01,0.00,29.2,27.4,00.0,37.6,30.5,16.6,0000.0,0010.60,0004.97,0003.79
2023-05-03 07:45:00,,0828.7,5.00,0.00,29.2,27.4,00.0,37.6,30.5,16.6,0000.0,0010.67,0004.97,0003.78
2023-05-03 07:46:00,,0828.7,4.99,0.00,29.2,27.4,00.0,37.6,30.6,16.5,0000.0,0010.71,0004.89,0003.77
2023-05-03 07:47:00,,0828.8,5.00,0.00,29.2,27.4,00.0,37.6,30.5,16.5,0000.0,0010.84,0004.94,0003.75
2023-05-03 07:48:00,,0828.7,5.01,0.00,29.2,27.4,00.0,37.6,30.5,16.5,0000.0,0010.68,0004.95,0003.72
2023-05-03 07:49:00,,0828.7,4.98,0.00,29.1,27.4,00.0,37.6,30.6,16.5,0000.0,0011.02,0004.87,0003.71
2023-05-03 07:50:00,,0828.7,5.01,0.00,29.2,27.4,00.0,37.6,30.5,16.5,0000.0,0011.36,0004.86,0003.69
2023-05-03 07:51:00,,0828.7,5.00,0.00,29.1,27.4,00.0,37.6,30.5,16.5,0000.0,0011.18,0004.84,0003.68
2023-05-03 07:52:00,,0828.7,5.01,0.00,29.1,27.4,00.0,37.6,30.5,16.4,0000.0,0011.09,0004.85,0003.67
2023-05-03 07:53:00,,0828.7,5.00,0.00,29.1,27.4,00.0,37.6,30.6,16.5,0000.0,0011.32,0004.93,0003.65
2023-05-03 07:54:00,,0828.7,4.99,0.00,29.1,27.4,00.0,37.6,30.6,16.5,0000.0,0011.56,0004.99,0003.65
2023-05-03 07:55:00,,0828.6,5.00,0.00,29.1,27.4,00.0,37.6,30.6,16.5,0000.0,0011.69,0005.03,0003.64
2023-05-03 07:56:00,,0828.6,5.00,0.00,29.1,27.4,00.0,37.6,30.6,16.5,0000.0,0011.61,0005.03,0003.63
2023-05-03 07:57:00,,0828.6,5.00,0.00,29.1,27.4,00.0,37.5,30.6,16.5,0000.0,0011.51,0005.05,0003.62
2023-05-03 07:58:00,,0828.6,4.99,0.00,29.1,27.4,00.0,37.5,30.5,16.5,0000.0,0011.28,0005.01,0003.63
2023-05-03 07:59:00,,0828.6,5.00,0.00,29.1,27.4,00.0,37.5,30.5,16.5,0000.0,0010.56,0004.98,0003.63
